GEFSNE_500_meanwind_138.txt.gz
Wind_Speed
12 12 12 11 10 9 8 7 6 5 5 5 6 7 8 9 11 13 14 16 17 18 20 20 21 23 24 24 25 25 26 27 28 28 28 28 28 28
11 11 12 11 10 9 8 8 7 7 7 7 8 9 10 10 11 13 14 15 17 19 20 22 23 24 25 26 26 27 27 28 29 30 30 30 30 30
11 11 11 11 10 10 10 9 9 9 9 9 10 11 12 13 13 15 16 17 18 19 21 22 24 25 26 27 28 29 29 29 30 31 31 32 32 32
13 12 12 11 11 11 11 11 12 12 12 12 13 13 15 16 17 17 18 20 20 21 22 24 25 26 28 28 29 29 30 30 31 32 33 34 34 34
15 14 14 13 13 13 13 14 14 15 15 16 16 17 18 19 19 20 21 22 24 24 25 26 27 29 30 30 31 31 32 31 32 33 33 35 36 36
17 17 17 16 16 16 16 17 17 18 19 19 20 21 22 22 23 23 24 25 26 27 28 28 29 31 32 32 33 34 34 34 34 35 35 34 36 36
19 20 20 19 19 19 20 20 21 22 23 24 24 25 26 27 27 28 28 29 29 30 31 31 32 33 34 35 35 36 36 37 36 36 36 36 37 37
22 23 23 22 22 23 23 24 25 25 26 27 28 29 30 30 31 32 32 33 33 33 34 34 35 35 36 37 38 38 39 39 40 39 39 40 40 40
25 25 26 26 26 26 27 28 29 30 31 32 33 34 34 34 35 35 36 37 36 36 36 36 37 37 38 39 40 41 42 42 42 42 42 41 42 42
28 28 28 28 29 30 31 32 33 34 35 36 38 38 39 40 40 41 41 40 40 40 40 40 40 40 40 41 42 43 44 45 45 45 45 44 44 44
31 31 31 32 32 33 34 35 36 37 38 40 41 42 43 44 45 45 45 45 44 44 45 45 44 44 44 44 45 45 46 47 48 49 49 48 47 47
34 34 34 35 36 36 37 38 39 40 41 42 44 45 46 48 48 49 49 48 48 48 49 49 49 49 48 48 48 48 49 49 50 51 51 51 51 50
36 37 37 37 38 39 40 41 42 43 44 46 47 48 48 49 50 51 52 52 52 52 52 52 52 52 53 51 51 51 52 51 51 52 52 52 52 52
39 39 39 40 40 41 42 43 45 46 47 48 49 49 49 50 51 52 53 54 54 54 54 54 54 53 54 54 53 53 54 54 53 53 54 55 54 54
40 40 41 42 42 44 45 47 48 49 50 51 51 52 52 53 53 54 54 54 54 55 55 55 55 54 55 55 54 54 54 55 54 54 54 55 56 57
42 42 43 44 45 47 48 50 51 52 53 53 54 54 55 55 55 56 56 56 56 56 56 55 55 55 55 56 56 55 55 55 55 55 55 55 55 56
45 45 46 47 48 49 51 52 53 55 56 56 57 57 57 57 57 57 57 57 57 56 55 54 55 55 56 56 56 55 55 55 55 55 56 57 56 56
47 48 49 50 51 52 54 55 56 57 58 59 60 59 59 59 59 58 58 57 57 56 55 54 55 56 56 55 55 55 55 55 55 55 56 56 56 57
50 51 52 53 54 56 57 58 59 60 61 61 61 61 60 59 59 58 57 56 56 55 55 55 55 56 55 54 53 54 55 55 55 56 56 56 56 56
52 54 55 56 57 58 60 60 61 62 63 62 61 61 60 59 57 57 56 56 56 56 55 54 54 54 54 54 53 53 55 55 55 55 55 55 56 56
55 56 57 58 59 61 61 62 63 64 63 62 61 60 59 58 57 57 56 56 56 55 54 52 52 53 54 53 53 52 53 55 55 54 54 54 54 54
57 58 59 60 62 63 63 64 64 64 63 62 61 60 59 58 57 57 56 55 55 54 52 50 49 50 51 51 50 49 49 50 51 52 52 51 52 52
59 60 61 62 63 64 64 64 64 63 63 62 61 60 59 57 56 56 54 53 53 51 49 47 45 45 46 46 45 44 44 46 47 48 48 48 50 49

GEFSNE_500_meanwind_144.txt.gz
Wind_Speed
11 11 10 9 9 9 8 8 8 7 7 7 7 7 7 8 9 9 10 11 11 12 13 14 14 16 17 17 18 19 21 22 23 23 23 23 24 24
11 11 10 10 10 9 9 8 8 8 8 8 8 8 9 10 10 11 11 12 13 13 14 15 16 17 18 19 19 20 22 23 25 25 25 25 25 26
11 11 11 11 11 11 10 10 9 10 10 10 10 11 12 12 12 13 13 14 14 15 16 17 18 19 20 21 21 22 23 24 25 27 28 28 28 28
12 12 12 13 13 13 12 12 12 12 13 13 14 14 15 15 16 16 16 17 17 18 19 19 20 21 22 23 24 25 26 26 27 27 27 28 29 29
13 13 14 14 14 14 14 14 15 15 16 16 17 17 18 18 19 19 20 20 21 21 22 22 23 23 24 25 26 27 28 29 29 30 30 30 29 30
15 16 16 16 16 16 16 17 17 18 18 19 19 20 20 21 21 22 23 23 24 24 25 25 26 26 27 28 29 29 30 30 31 32 32 33 33 33
18 18 18 18 18 19 19 20 20 21 21 22 22 23 23 24 24 25 25 26 27 28 28 28 29 30 30 31 32 32 32 33 33 34 35 36 36 37
20 20 21 21 21 21 22 23 23 23 24 24 25 25 26 27 27 28 29 29 30 30 31 32 32 33 33 34 34 35 35 36 37 37 38 38 39 39
22 23 23 23 24 24 25 25 26 26 26 27 28 28 29 30 31 31 32 33 34 35 35 36 36 37 37 38 38 39 40 40 40 40 40 41 42 42
25 25 26 26 26 27 27 28 28 28 29 30 30 32 32 33 34 35 36 36 37 39 40 40 41 42 42 44 44 44 44 45 45 45 45 45 45 45
27 28 28 29 29 30 30 30 31 31 32 32 33 34 35 37 38 39 40 41 41 43 45 46 46 47 47 48 49 49 49 49 49 49 50 50 50 50
30 30 31 32 32 32 32 32 33 33 34 35 36 37 38 40 41 43 44 45 46 47 49 50 51 52 51 51 52 53 53 53 53 54 54 54 54 54
33 33 34 35 35 35 34 34 35 36 37 38 39 40 41 42 44 45 47 48 49 50 51 53 54 54 55 54 54 55 56 56 56 56 56 56 56 57
35 36 37 37 37 37 37 37 38 39 39 40 41 42 44 45 46 48 50 51 52 53 54 55 56 57 57 56 55 55 56 57 57 56 56 56 56 57
37 38 38 38 38 38 39 40 41 42 43 44 44 46 47 49 50 52 53 54 55 56 58 59 59 59 59 59 58 56 56 56 57 57 56 57 57 57
39 40 40 40 40 41 41 43 44 45 46 47 48 49 50 52 53 55 56 57 57 58 60 61 61 61 61 60 59 57 57 57 57 57 57 58 58 58
41 41 41 42 42 44 45 46 47 48 49 50 51 52 53 55 56 57 59 60 61 61 61 62 62 62 62 61 60 59 58 58 58 58 58 58 58 58
44 44 44 44 45 46 48 49 49 50 51 53 54 55 56 58 59 60 62 63 63 63 63 62 62 61 60 59 61 61 60 59 58 57 57 57 57 57
46 47 47 48 48 49 50 50 51 52 54 55 56 57 59 60 61 63 64 65 65 64 63 61 61 61 61 59 58 60 60 58 57 56 56 57 57 57
48 49 50 50 50 51 51 51 52 54 55 56 58 59 60 62 63 64 64 65 64 63 61 60 60 61 62 61 58 55 56 56 55 54 53 54 55 56
50 50 50 51 51 52 52 53 54 55 56 58 59 60 62 63 64 64 64 64 63 62 60 59 58 59 59 59 57 53 51 51 52 53 52 52 51 52
51 51 51 51 52 53 54 55 56 57 58 59 60 62 63 64 64 64 64 63 62 61 60 58 57 57 56 56 54 51 48 47 48 48 48 47 46 46
51 52 52 53 53 55 56 57 58 59 60 61 62 63 63 64 64 64 63 62 62 61 59 58 56 55 54 53 51 48 46 45 44 43 42 41 42 42

GEFSNE_500_meanwind_150.txt.gz
Wind_Speed
8 7 7 6 5 4 3 4 3 3 3 4 4 5 5 5 6 6 6 7 7 8 9 10 10 12 13 14 15 16 18 18 19 20 21 22 22 23
8 8 7 6 5 5 4 4 4 5 5 6 6 6 7 7 8 8 8 9 10 10 11 12 12 13 14 15 17 18 19 20 21 21 22 24 25 26
7 7 7 7 7 6 6 6 7 7 7 8 8 9 9 10 10 11 11 12 12 13 13 14 15 16 16 17 18 20 21 22 23 23 24 25 25 26
8 8 8 8 8 8 8 8 8 9 10 10 10 11 12 12 12 13 14 15 15 16 16 17 17 18 19 20 21 22 23 24 25 26 27 28 28 28
9 9 10 10 10 10 10 10 10 11 12 12 13 14 14 15 15 16 16 17 18 18 19 19 20 21 21 22 23 24 25 26 26 27 29 30 31 31
11 11 12 12 12 12 12 13 13 13 14 14 15 15 16 17 18 18 19 19 20 21 22 23 23 24 24 25 26 27 27 28 29 30 31 32 33 34
12 13 14 14 14 14 15 15 16 16 17 17 17 18 19 20 20 21 22 22 23 24 24 25 26 27 27 28 29 29 30 31 31 32 33 34 35 36
14 15 15 16 16 17 17 18 19 19 20 20 21 21 21 22 23 24 24 25 26 27 27 28 29 30 31 32 33 33 34 34 36 37 37 38 39 40
16 17 18 18 19 20 21 21 22 22 23 23 23 24 24 25 26 27 27 28 29 30 30 31 32 33 34 35 36 37 38 39 40 41 42 43 44 45
19 20 21 21 22 23 23 24 24 25 25 26 26 26 27 28 29 29 30 31 32 33 33 34 35 37 38 39 40 42 43 43 44 45 47 48 49 50
22 22 23 24 24 25 25 26 26 27 27 28 29 30 30 31 32 32 33 34 35 36 37 38 39 40 41 43 44 46 48 49 50 51 52 53 54 54
24 25 25 26 27 28 29 29 30 30 30 32 32 33 33 34 35 36 37 38 38 39 40 41 42 43 44 46 48 51 53 54 56 57 58 58 59 59
27 28 28 29 30 31 32 33 33 34 34 34 35 36 36 37 38 39 40 41 42 43 44 45 46 47 49 49 51 54 56 58 59 61 62 63 63 63
30 31 32 33 33 34 35 36 36 36 37 37 38 38 39 40 41 42 43 44 46 47 48 49 51 52 54 55 55 57 59 61 62 63 64 65 64 64
33 34 35 36 37 37 38 38 39 39 39 40 40 41 42 43 44 45 46 47 49 50 52 54 55 57 58 60 60 60 62 63 64 64 64 65 64 64
36 37 38 38 39 40 41 41 41 41 42 42 43 44 45 46 47 48 49 50 51 53 55 57 59 61 62 63 64 64 64 65 64 64 64 64 64 65
39 39 40 41 42 42 43 43 43 44 44 45 46 47 48 49 50 51 52 53 54 55 57 59 62 63 65 66 66 66 66 66 65 65 65 64 62 63
41 42 43 43 44 44 45 45 45 46 46 47 48 49 50 51 52 53 54 55 56 57 59 61 62 64 65 65 67 67 66 66 65 65 65 64 61 60
43 44 45 45 46 46 47 47 48 48 48 48 49 50 51 52 53 54 55 56 58 59 60 62 64 66 66 66 64 65 66 65 65 63 63 62 60 58
46 46 47 47 47 47 48 48 49 49 50 50 51 51 52 53 54 56 57 58 59 60 61 63 65 66 67 67 64 61 62 64 63 63 61 60 58 56
48 48 48 48 48 48 49 49 50 50 51 52 53 53 54 55 56 57 58 60 61 62 63 64 65 66 66 66 63 60 59 60 61 61 58 56 54 52
49 49 49 49 49 50 50 51 51 52 53 53 54 55 56 57 58 59 60 61 62 64 65 65 65 65 65 64 62 60 58 57 57 56 55 54 53 51
50 50 50 50 51 51 52 52 53 53 54 54 55 56 57 58 59 60 61 62 63 64 65 64 64 63 62 62 60 58 57 55 54 51 49 49 50 49

GEFSNE_500_meanwind_156.txt.gz
Wind_Speed
7 6 5 5 4 4 4 4 3 3 3 4 4 5 5 5 5 6 7 7 8 9 10 10 10 11 11 12 13 14 14 15 16 17 17 18 19 20
7 6 5 5 5 5 5 5 5 4 5 5 6 6 7 7 8 8 9 10 10 11 11 12 12 12 12 13 14 15 16 17 18 18 19 20 21 22
6 6 6 5 6 6 6 6 6 6 7 7 8 8 9 10 10 11 12 12 12 13 14 14 15 15 16 15 15 16 17 18 19 20 21 21 22 23
6 7 7 7 7 7 8 8 8 8 8 9 9 10 11 11 12 14 14 15 15 15 16 16 17 18 18 19 19 19 19 20 21 22 23 23 24 25
8 8 8 8 9 9 10 10 10 10 10 11 12 13 13 14 15 15 16 17 17 18 18 19 19 20 21 22 22 22 23 23 24 24 25 25 26 27
9 10 10 10 11 11 12 12 12 13 13 14 14 15 16 16 17 18 19 20 20 20 20 21 22 22 23 24 24 25 26 26 27 28 28 29 30 30
11 11 12 13 13 14 14 15 15 16 16 17 17 17 18 19 19 20 21 22 23 23 24 24 25 26 26 27 28 29 30 30 31 32 32 33 34 34
13 14 14 15 15 16 16 17 17 18 18 19 20 20 21 21 22 23 24 25 25 26 27 27 28 29 30 31 31 32 33 34 35 36 36 37 38 39
16 16 17 17 18 18 18 19 19 20 21 21 22 23 23 24 25 26 27 27 28 28 29 30 31 32 33 35 35 36 37 37 38 39 40 40 41 43
18 18 19 19 20 20 21 21 22 23 23 24 25 25 26 27 27 28 29 29 30 31 32 32 33 34 35 37 38 39 40 41 42 43 43 44 45 46
20 21 22 22 23 23 24 24 25 26 26 27 28 28 29 29 30 31 31 32 33 34 35 36 37 38 38 40 41 42 43 45 46 47 47 48 49 50
23 23 24 25 26 26 27 28 28 29 30 31 31 31 32 33 33 34 35 36 36 37 38 40 41 42 42 43 44 46 47 48 49 50 51 53 54 55
25 26 27 28 29 29 30 31 32 32 33 34 34 35 35 36 36 37 38 39 40 41 42 43 44 45 46 46 47 49 51 52 53 54 55 56 58 59
28 29 30 31 31 32 33 34 35 36 36 37 37 38 38 39 39 40 42 43 43 44 45 46 47 48 49 49 50 51 52 54 55 56 57 59 60 61
31 32 33 34 34 35 36 37 38 39 39 40 40 40 41 42 43 43 44 45 45 46 48 49 50 50 51 52 52 53 54 55 57 59 60 61 62 62
34 35 36 37 38 39 39 40 41 41 42 42 42 43 43 44 45 46 46 47 47 48 49 50 51 52 53 54 55 55 57 58 59 61 62 63 63 64
37 38 39 39 40 41 42 43 43 44 44 45 45 45 45 46 46 47 47 48 49 50 51 52 53 54 55 56 56 57 59 60 62 63 64 64 64 66
39 40 41 42 43 44 45 45 45 46 46 46 46 47 47 47 48 48 49 50 51 52 53 54 55 55 56 57 59 60 61 62 63 64 66 66 65 66
42 43 44 44 45 46 47 47 47 47 48 48 48 48 49 49 50 50 51 52 53 53 54 55 56 57 57 57 57 61 63 63 64 65 66 66 66 65
45 46 47 47 48 48 48 48 48 49 49 50 50 50 50 51 51 52 53 54 54 55 55 56 57 58 59 60 60 61 64 66 66 66 66 66 65 64
47 48 48 49 49 50 50 50 50 50 50 51 51 51 52 52 53 54 55 55 55 56 56 57 58 59 61 62 62 61 62 64 65 66 65 64 63 62
49 49 50 50 51 51 51 51 51 51 52 52 52 53 53 54 54 55 56 57 57 58 58 59 59 60 61 62 62 62 62 62 62 63 63 63 62 60
51 51 51 52 52 52 52 52 52 52 52 53 54 54 54 54 55 56 56 57 58 59 59 59 60 60 61 62 63 63 63 62 62 61 59 59 59 58

GEFSNE_500_meanwind_162.txt.gz
Wind_Speed
4 4 2 2 1 1 2 2 2 3 4 5 5 6 8 8 9 9 9 9 9 10 11 12 13 13 14 14 14 14 15 14 15 16 16 17 18 19
3 3 2 2 3 3 4 4 4 5 6 7 7 8 8 9 9 10 10 11 11 12 12 13 14 14 15 15 16 17 16 17 17 18 18 18 20 21
3 3 3 4 5 5 5 5 6 6 7 8 9 9 10 10 10 10 11 12 12 13 14 14 15 15 15 16 17 18 18 18 19 19 20 21 21 22
5 5 6 6 6 7 6 7 7 8 9 10 10 10 10 11 11 12 13 13 14 15 16 16 17 18 18 18 18 19 19 20 20 21 22 23 24 25
7 7 7 7 8 8 8 9 9 10 11 11 11 11 11 12 13 14 15 16 16 17 18 18 19 20 20 21 21 22 22 23 23 24 24 25 26 27
8 8 9 9 9 9 10 10 11 12 12 13 12 12 13 14 15 16 17 18 18 20 20 21 22 23 23 24 24 25 26 26 27 28 28 29 30 31
9 10 10 10 10 11 12 12 13 14 14 14 14 14 15 16 16 18 18 19 21 22 23 24 25 26 27 27 27 27 29 30 31 31 32 33 34 34
12 12 12 12 12 13 14 15 15 16 16 16 16 17 18 19 19 20 21 22 23 24 25 26 27 28 29 30 30 30 31 32 33 34 35 36 37 38
14 14 14 14 15 16 17 17 18 18 19 19 19 20 21 22 23 23 24 25 26 27 28 29 30 31 32 32 33 34 35 35 36 37 39 39 40 40
16 16 17 17 18 19 19 20 20 20 21 21 22 23 24 25 26 27 28 29 30 31 31 32 32 34 35 36 37 37 38 39 40 41 41 42 43 44
19 19 20 20 21 21 22 22 23 23 24 25 26 27 27 28 29 30 31 32 33 34 35 36 36 37 38 39 40 41 41 42 43 43 44 44 45 46
22 22 23 23 24 24 24 25 26 26 27 28 29 30 31 32 33 34 35 35 36 37 38 39 40 40 40 41 42 43 44 44 45 46 46 47 48 49
25 25 26 27 27 27 28 28 29 30 31 32 33 34 35 36 37 37 38 39 40 41 41 42 43 43 44 44 44 45 46 47 47 48 49 50 51 52
27 28 28 29 30 31 31 32 33 33 34 35 36 36 37 38 39 40 41 42 43 44 44 45 45 46 46 47 47 48 48 49 50 50 52 53 54 55
29 30 30 31 32 33 34 35 36 36 37 38 38 39 40 41 41 42 43 44 45 46 46 47 47 48 48 49 49 50 50 50 52 53 54 55 56 56
32 32 33 34 35 36 37 38 38 39 40 40 41 41 42 42 43 44 45 46 46 47 48 48 49 50 50 51 51 51 52 52 53 54 55 55 56 58
34 34 35 36 37 38 39 40 41 41 42 42 42 43 43 44 45 46 46 47 48 48 48 49 50 51 52 53 53 53 54 54 55 55 55 56 57 59
35 37 38 39 40 41 42 42 43 43 43 44 44 44 45 45 46 47 48 48 49 49 50 51 52 52 53 53 54 55 56 56 56 57 57 58 58 60
38 39 40 41 42 43 44 44 45 45 45 45 46 47 47 47 48 49 50 50 50 51 52 53 53 53 54 54 54 56 57 57 57 58 59 60 60 60
41 42 43 44 44 44 45 45 46 46 47 47 47 48 49 49 50 50 51 52 52 53 53 54 54 55 56 56 55 55 56 57 58 59 59 60 61 61
43 44 44 45 46 46 46 46 47 47 48 48 49 49 50 50 51 51 52 53 53 54 54 55 55 56 57 57 57 56 57 57 59 59 60 60 60 59
45 46 47 47 48 48 48 48 49 49 49 49 50 50 50 51 51 52 53 54 54 55 55 56 56 56 57 57 57 56 56 56 57 58 58 59 59 59
47 48 49 49 49 49 50 50 50 50 50 50 51 51 51 52 52 53 54 55 55 55 56 56 56 56 56 56 56 55 55 55 56 56 56 56 57 57